Change the Weather History Date:

Wednesday, February 13, 2013

  Actual Average Record
Temperature  
Mean Temperature 32 °F -  
Max Temperature 39 °F 33 °F 69 °F (1997)
Min Temperature 26 °F 20 °F -7 °F (2015)
Degree Days  
Heating Degree Days 32    
Moisture  
Dew Point 22 °F    
Average Humidity 69    
Maximum Humidity 79    
Minimum Humidity 52    
Precipitation  
Precipitation 0.00 in - - ()
Sea Level Pressure  
Sea Level Pressure 29.78 in    
Wind  
Wind Speed 6 mph (SW)    
Max Wind Speed 10 mph    
Max Gust Speed -    
Visibility 10 miles    
Events      
Averages and records for this station are not official NWS values.
T = Trace of Precipitation, MM = Missing Value Source: NWS Daily Summary

Daily Weather History Graph

Daily Weather History Graph

Search for Another Location

Airport or City:

Trip Planner

Search our weather history database for the weather conditions in past years. The results will help you decide how hot, cold, wet, or windy it might be!

Date:

Astronomy

Feb. 13, 2013 Rise Set
Actual Time 7:35 AM EST 6:05 PM EST
Civil Twilight 7:06 AM EST 6:34 PM EST
Nautical Twilight 6:33 AM EST 7:07 PM EST
Astronomical Twilight 6:00 AM EST 7:40 PM EST
Moon 8:57 AM EST (2/13) 10:14 PM EST (2/13)
Length of Visible Light 11h 28m
Length of Day
10h 30m
Waxing Crescent, 13% of the Moon is Illuminated
Feb 13
Waxing Crescent
Feb 17
First Quarter
Feb 25
Full
Mar 4
Last Quarter
Mar 11
New

Hourly Weather History & Observations

Time (EST) Temp. Windchill Dew Point Humidity Pressure Visibility Wind Dir Wind Speed Gust Speed Precip Events Conditions
12:15 AM 28.2 °F 21.0 °F 20.1 °F 72% 29.90 in 10.0 mi West 6.9 mph - N/A   Overcast
12:34 AM 28.0 °F 20.0 °F 20.1 °F 72% 29.90 in 10.0 mi West 8.1 mph - N/A   Overcast
12:54 AM 28.0 °F 20.0 °F 20.1 °F 72% 29.89 in 10.0 mi West 8.1 mph - N/A   Overcast
1:15 AM 27.9 °F 20.6 °F 19.9 °F 72% 29.89 in 10.0 mi West 6.9 mph - N/A   Overcast
1:34 AM 27.9 °F 19.1 °F 20.1 °F 73% 29.89 in 10.0 mi West 9.2 mph - N/A   Overcast
1:54 AM 27.9 °F 20.6 °F 20.3 °F 73% 29.88 in 10.0 mi West 6.9 mph - N/A   Overcast
2:15 AM 27.9 °F 19.8 °F 20.1 °F 73% 29.88 in 10.0 mi West 8.1 mph - N/A   Overcast
2:34 AM 27.5 °F 20.2 °F 20.1 °F 74% 29.88 in 10.0 mi WNW 6.9 mph - N/A   Overcast
2:54 AM 27.5 °F 20.2 °F 20.1 °F 74% 29.87 in 10.0 mi WNW 6.9 mph - N/A   Overcast
3:15 AM 27.5 °F 20.2 °F 20.3 °F 74% 29.86 in 10.0 mi WNW 6.9 mph - N/A   Overcast
3:34 AM 27.1 °F 18.9 °F 20.1 °F 75% 29.85 in 10.0 mi West 8.1 mph - N/A   Overcast
3:54 AM 27.0 °F 18.0 °F 20.1 °F 75% 29.85 in 10.0 mi WNW 9.2 mph - N/A   Overcast
4:15 AM 27.1 °F 18.9 °F 20.3 °F 75% 29.85 in 10.0 mi West 8.1 mph - N/A   Overcast
4:34 AM 27.3 °F 20.9 °F 20.8 °F 77% 29.86 in 10.0 mi West 5.8 mph - N/A   Overcast
4:55 AM 27.3 °F 19.9 °F 20.7 °F 76% 29.85 in 10.0 mi West 6.9 mph - N/A   Overcast
5:14 AM 27.1 °F 20.7 °F 20.7 °F 77% 29.85 in 10.0 mi West 5.8 mph - N/A   Overcast
5:34 AM 27.1 °F 21.8 °F 20.3 °F 75% 29.85 in 10.0 mi WNW 4.6 mph - N/A   Overcast
5:55 AM 27.0 °F 21.6 °F 20.7 °F 77% 29.84 in 10.0 mi WNW 4.6 mph - N/A   Overcast
6:14 AM 27.1 °F - 20.3 °F 75% 29.84 in 10.0 mi Calm Calm - N/A   Overcast
6:34 AM 26.8 °F - 20.3 °F 77% 29.83 in 10.0 mi Calm Calm - N/A   Overcast
6:54 AM 26.8 °F - 20.8 °F 78% 29.83 in 10.0 mi Calm Calm - N/A   Overcast
7:14 AM 26.6 °F 22.6 °F 20.7 °F 78% 29.82 in 10.0 mi West 3.5 mph - N/A   Overcast
7:35 AM 26.4 °F - 20.5 °F 78% 29.81 in 10.0 mi Calm Calm - N/A   Overcast
7:54 AM 26.4 °F - 20.3 °F 78% 29.80 in 10.0 mi Calm Calm - N/A   Overcast
8:14 AM 26.2 °F 20.7 °F 20.3 °F 78% 29.81 in 10.0 mi South 4.6 mph - N/A   Overcast
8:35 AM 26.4 °F - 20.3 °F 78% 29.81 in 10.0 mi Calm Calm - N/A   Overcast
8:54 AM 26.6 °F 21.2 °F 20.8 °F 79% 29.80 in 10.0 mi SSE 4.6 mph - N/A   Overcast
9:14 AM 27.1 °F 20.7 °F 21.0 °F 78% 29.80 in 10.0 mi SSE 5.8 mph - N/A   Overcast
9:35 AM 27.5 °F 22.2 °F 21.0 °F 77% 29.79 in 10.0 mi SSE 4.6 mph - N/A   Overcast
9:54 AM 27.9 °F 21.5 °F 21.2 °F 76% 29.79 in 10.0 mi South 5.8 mph - N/A   Overcast
10:14 AM 28.4 °F 22.2 °F 20.8 °F 73% 29.79 in 10.0 mi SSE 5.8 mph - N/A   Overcast
10:35 AM 28.9 °F - 21.0 °F 72% 29.79 in 10.0 mi Calm Calm - N/A   Overcast
10:54 AM 29.1 °F 25.4 °F 21.0 °F 72% 29.80 in 10.0 mi SSW 3.5 mph - N/A   Overcast
11:14 AM 30.2 °F 26.7 °F 21.6 °F 70% 29.80 in 10.0 mi SW 3.5 mph - N/A   Overcast
11:35 AM 30.6 °F 25.8 °F 21.7 °F 70% 29.80 in 10.0 mi South 4.6 mph - N/A   Overcast
11:54 AM 32.2 °F 25.8 °F 22.8 °F 68% 29.79 in 10.0 mi SSW 6.9 mph - N/A   Mostly Cloudy
12:15 PM 32.4 °F 25.3 °F 22.5 °F 67% 29.78 in 10.0 mi SSW 8.1 mph - N/A   Mostly Cloudy
12:34 PM 33.8 °F 27.0 °F 22.6 °F 64% 29.78 in 10.0 mi SW 8.1 mph - N/A   Mostly Cloudy
12:54 PM 34.7 °F 28.1 °F 23.2 °F 63% 29.76 in 10.0 mi South 8.1 mph - N/A   Scattered Clouds
1:15 PM 35.4 °F 29.7 °F 23.0 °F 61% 29.75 in 10.0 mi WSW 6.9 mph - N/A   Clear
1:34 PM 36.0 °F 33.3 °F 22.6 °F 58% 29.73 in 10.0 mi SW 3.5 mph - N/A   Clear
1:54 PM 36.7 °F 32.0 °F 23.0 °F 58% 29.73 in 10.0 mi WSW 5.8 mph - N/A   Clear
2:15 PM 37.4 °F 30.8 °F 22.8 °F 56% 29.72 in 10.0 mi SW 9.2 mph - N/A   Clear
2:34 PM 38.1 °F 32.9 °F 23.4 °F 55% 29.71 in 10.0 mi West 6.9 mph - N/A   Clear
2:54 PM 38.7 °F 31.8 °F 23.5 °F 55% 29.71 in 10.0 mi WSW 10.4 mph - N/A   Clear
3:15 PM 38.8 °F 32.6 °F 23.4 °F 54% 29.70 in 10.0 mi WSW 9.2 mph - N/A   Clear
3:34 PM 39.4 °F 33.2 °F 23.2 °F 52% 29.71 in 10.0 mi WSW 9.2 mph - N/A   Clear
3:54 PM 39.0 °F 32.8 °F 23.0 °F 53% 29.70 in 10.0 mi WSW 9.2 mph - N/A   Clear
4:15 PM 39.6 °F 34.7 °F 23.9 °F 54% 29.70 in 10.0 mi WSW 6.9 mph - N/A   Clear
4:34 PM 39.4 °F 33.2 °F 23.9 °F 54% 29.71 in 10.0 mi WSW 9.2 mph - N/A   Clear
4:54 PM 39.0 °F 34.8 °F 23.7 °F 54% 29.71 in 10.0 mi West 5.8 mph - N/A   Scattered Clouds
5:15 PM 38.3 °F 33.9 °F 23.9 °F 56% 29.71 in 10.0 mi WSW 5.8 mph - N/A   Mostly Cloudy
5:34 PM 37.8 °F 35.3 °F 24.1 °F 58% 29.72 in 10.0 mi West 3.5 mph - N/A   Scattered Clouds
5:55 PM 36.7 °F - 23.9 °F 60% 29.72 in 10.0 mi Calm Calm - N/A   Mostly Cloudy
6:14 PM 36.7 °F - 23.4 °F 59% 29.72 in 10.0 mi Calm Calm - N/A   Scattered Clouds
6:34 PM 36.1 °F - 23.4 °F 60% 29.72 in 10.0 mi Calm Calm - N/A   Clear
6:55 PM 35.6 °F - 23.9 °F 62% 29.73 in 10.0 mi Calm Calm - N/A   Clear
7:14 PM 32.7 °F - 23.0 °F 67% 29.73 in 10.0 mi Calm Calm - N/A   Clear
7:35 PM 32.0 °F - 23.7 °F 71% 29.73 in 10.0 mi Calm Calm - N/A   Clear
7:54 PM 32.4 °F - 24.4 °F 73% 29.74 in 10.0 mi Calm Calm - N/A   Clear
8:14 PM 32.7 °F - 24.1 °F 71% 29.74 in 10.0 mi Calm Calm - N/A   Scattered Clouds
8:35 PM 33.1 °F - 23.5 °F 68% 29.74 in 10.0 mi Calm Calm - N/A   Scattered Clouds
8:54 PM 32.9 °F 29.8 °F 23.2 °F 67% 29.74 in 10.0 mi SSW 3.5 mph - N/A   Clear
9:14 PM 32.4 °F 29.1 °F 23.4 °F 69% 29.74 in 10.0 mi SSW 3.5 mph - N/A   Clear
9:34 PM 32.0 °F 28.7 °F 23.0 °F 69% 29.74 in 10.0 mi SSW 3.5 mph - N/A   Clear
9:54 PM 32.4 °F - 22.8 °F 68% 29.74 in 10.0 mi Calm Calm - N/A   Clear
10:15 PM 28.9 °F 25.2 °F 21.9 °F 75% 29.74 in 7.0 mi SSE 3.5 mph - N/A   Scattered Clouds
10:34 PM 29.7 °F 24.7 °F 23.0 °F 76% 29.74 in 7.0 mi South 4.6 mph - N/A   Scattered Clouds
10:54 PM 31.3 °F 26.6 °F 23.9 °F 74% 29.74 in 10.0 mi South 4.6 mph - N/A   Clear
11:14 PM 31.6 °F 28.3 °F 24.1 °F 74% 29.74 in 7.0 mi South 3.5 mph - N/A   Clear
11:34 PM 30.0 °F 26.5 °F 23.4 °F 76% 29.74 in 7.0 mi South 3.5 mph - N/A   Clear
11:55 PM 29.8 °F 24.9 °F 23.5 °F 77% 29.73 in 7.0 mi South 4.6 mph - N/A   Clear